Hourly Data Report for September 01, 2017

All times are specified in Local Standard Time (LST). Add 1 hour to adjust for Daylight Saving Time where and when it is observed.

BAS CARAQUET
NEW BRUNSWICK

47°48'08.000" N
64°50'00.000" W
5.00 m
8100467
71598
WXS

Download Data

Hourly Data (September 2017)
Hourly Data Report for September 1, 2017
Temp Definition
°C
Dew Point Temp Definition
°C
Rel Hum Definition
%
Wind Dir Definition
10's deg

Wind Spd Definition
km/h
Visibility Definition
km
Stn Press Definition
kPa
Hmdx Definition


Wind Chill Definition


Weather Definition


TIME
00:00 11.1 6.8 75 29 29   100.15     LegendNANA
01:00 10.6 6.2 74 28 31   100.18     LegendNANA
02:00 9.9 5.0 71 28 27   100.21     LegendNANA
03:00 9.6 4.9 72 28 27   100.21     LegendNANA
04:00 9.9 5.2 72 29 24   100.23     LegendNANA
05:00 9.9 4.7 70 27 21   100.26     LegendNANA
06:00 9.8 4.5 69 27 16   100.30     LegendNANA
07:00 9.8 3.9 67 23 11   100.32     LegendNANA
08:00 10.4 4.4 67 23 10   100.31     LegendNANA
09:00 11.3 3.9 60 25 16   100.28     LegendNANA
10:00 12.8 3.7 54 26 19   100.31     LegendNANA
11:00 14.5 5.1 53 27 15   100.32     LegendNANA
12:00 13.1 5.2 59 30 17   100.29     LegendNANA
13:00 12.5 6.0 65 31 18   100.33     LegendNANA
14:00 14.5 6.3 58 30 18   100.35     LegendNANA
15:00 14.6 6.5 58 30 20   100.37     LegendNANA
16:00 14.3 5.2 55 28 13   100.38     LegendNANA
17:00 13.3 4.0 53 27 15   100.42     LegendNANA
18:00 12.0 5.0 62 27 13   100.49     LegendNANA
19:00 12.5 7.9 73 31 21   100.57     LegendNANA
20:00 12.6 7.9 73 32 22   100.67     LegendNANA
21:00 11.9 7.4 74 32 23   100.75     LegendNANA
22:00 11.1 7.0 76 32 24   100.79     LegendNANA
23:00 10.4 7.8 84 30 22   100.84     LegendNANA

Notes on Data Quality.

Legend

  • E = Estimated
  • M = Missing
  • NA = Not Available
  • ‡ = Partner data that is not subject to review by the National Climate Archives
Date modified: